Location: Brno
(49.2000°N, 16.6330°E)
Time: 17:30:10
(UTC+02:00)

Transit 4A - Pass Details

Date: 04 August 2021
Orbit: 871 x 974 km, 66.8° (Epoch: 16 September)

Event Time Altitude Azimuth Distance (km) Brightness Sun altitude
Rises 08:11:06 0° 324° (NW) 3,474 10.6 24.5°
Reaches altitude 10° 08:13:35 10° 327° (NNW) 2,538 9.9 24.9°
Maximum altitude 08:19:27 70° 52° (NE) 942 8.7 25.9°
Drops below altitude 10° 08:25:24 10° 136° (SE) 2,576 11.1 26.8°
Sets 08:27:56 0° 138° (SE) 3,529 11.6 27.3°
